GW2622 Weather Reports


time (UTC)temp
C
wind
direction
speed
KPH
gust
KPH
rain 1hr
cm
rain 24hr
cm
rain mn
cm
humidity
%
barometer
mb
20260506002931 12 279 9.7 12.9 0.00 0.00 0.00 39 1010.8
20260506002428 12 278 8.0 11.3 0.00 0.00 0.00 37 1010.8
20260506001923 12 315 8.0 12.9 0.00 0.00 0.00 37 1010.9
20260506001421 13 304 6.4 9.7 0.00 0.00 0.00 38 1010.8
20260506000918 13 282 4.8 8.0 0.00 0.00 0.00 38 1010.7
20260506000416 13 335 9.7 14.5 0.00 0.00 0.00 38 1010.7
20260505235912 13 305 11.3 22.5 0.00 0.00 0.00 37 1010.8
20260505235410 13 314 4.8 11.3 0.00 0.00 0.00 37 1010.9
20260505234907 13 338 9.7 16.1 0.00 0.00 0.00 36 1010.7
20260505234404 13 308 8.0 12.9 0.00 0.00 0.00 35 1010.6
20260505233901 13 253 8.0 16.1 0.00 0.00 0.00 35 1010.6
20260505233359 13 305 9.7 12.9 0.00 0.00 0.00 35 1010.7
20260505232856 13 321 4.8 14.5 0.00 0.00 0.00 36 1010.6
20260505232354 13 358 8.0 14.5 0.00 0.00 0.00 36 1010.5
20260505231850 13 316 12.9 17.7 0.00 0.00 0.00 36 1010.4
20260505231348 13 356 4.8 14.5 0.00 0.00 0.00 36 1010.5
20260505230846 13 311 1.6 14.5 0.00 0.00 0.00 35 1010.5
20260505230343 13 282 12.9 25.7 0.00 0.00 0.00 34 1010.4
20260505225839 13 302 9.7 20.9 0.00 0.00 0.00 35 1010.3
20260505225336 13 341 4.8 20.9 0.00 0.00 0.00 35 1010.2
20260505224830 13 326 12.9 17.7 0.00 0.00 0.00 35 1010.4
20260505224329 13 16 8.0 24.1 0.00 0.00 0.00 35 1010.2
20260505223826 14 10 6.4 24.1 0.00 0.00 0.00 36 1010.4
20260505223323 14 336 6.4 22.5 0.00 0.00 0.00 35 1010.3
20260505222818 14 20 8.0 17.7 0.00 0.00 0.00 34 1010.3
20260505222315 15 338 12.9 20.9 0.00 0.00 0.00 34 1010.2
20260505221812 15 6 8.0 14.5 0.00 0.00 0.00 36 1010.2
20260505221308 15 329 14.5 20.9 0.00 0.00 0.00 34 1009.9
20260505220806 15 283 11.3 24.1 0.00 0.00 0.00 36 1010.0
20260505220303 15 292 6.4 12.9 0.00 0.00 0.00 41 1009.8
20260505215801 14 256 11.3 14.5 0.00 0.00 0.00 40 1009.7
20260505215258 14 221 9.7 12.9 0.00 0.00 0.00 43 1010.0
20260505214756 14 249 8.0 11.3 0.00 0.00 0.00 41 1010.2
20260505214254 14 243 6.4 9.7 0.00 0.00 0.00 41 1009.9
20260505213751 14 284 9.7 11.3 0.00 0.00 0.00 40 1010.2
20260505213248 14 252 4.8 12.9 0.00 0.00 0.00 40 1010.3
20260505212744 14 217 9.7 11.3 0.00 0.00 0.00 43 1010.3
20260505212242 14 278 1.6 12.9 0.00 0.00 0.00 42 1010.3
20260505211738 14 246 6.4 17.7 0.00 0.00 0.00 41 1010.4
20260505211236 15 262 3.2 4.8 0.00 0.00 0.00 43 1010.4
20260505210732 14 281 1.6 8.0 0.00 0.00 0.00 43 1010.4
20260505210229 14 262 4.8 8.0 0.00 0.00 0.00 41 1010.4
20260505205726 13 298 1.6 3.2 0.00 0.00 0.00 42 1010.6
20260505205224 14 295 4.8 9.7 0.00 0.00 0.00 41 1010.5
20260505204720 14 208 6.4 9.7 0.00 0.00 0.00 42 1010.7
20260505204219 13 262 3.2 9.7 0.00 0.00 0.00 44 1010.8
20260505203715 13 263 8.0 9.7 0.00 0.00 0.00 41 1011.0
20260505203212 13 226 11.3 14.5 0.00 0.00 0.00 41 1010.9
20260505202708 13 297 3.2 3.2 0.00 0.00 0.00 43 1011.2
20260505202204 13 280 6.4 12.9 0.00 0.00 0.00 42 1011.1
20260505201701 13 313 3.2 11.3 0.00 0.00 0.00 42 1011.2
20260505201159 13 287 0.0 8.0 0.00 0.00 0.00 41 1011.2
20260505200657 13 263 1.6 8.0 0.00 0.00 0.00 42 1011.2
20260505200153 13 294 12.9 17.7 0.00 0.00 0.00 42 1011.4
20260505195649 14 282 4.8 11.3 0.00 0.00 0.00 43 1011.3
20260505195147 13 259 4.8 11.3 0.00 0.00 0.00 41 1011.3
20260505194644 13 286 9.7 14.5 0.00 0.00 0.00 42 1011.6
20260505194140 13 187 8.0 12.9 0.00 0.00 0.00 41 1011.7
20260505193636 13 291 11.3 14.5 0.00 0.00 0.00 41 1011.6
20260505193133 13 294 3.2 8.0 0.00 0.00 0.00 43 1011.7
20260505192632 14 317 8.0 12.9 0.00 0.00 0.00 41 1011.6
20260505192129 13 277 0.0 11.3 0.00 0.00 0.00 44 1011.6
20260505191628 13 250 6.4 11.3 0.00 0.00 0.00 43 1011.6
20260505191125 13 328 9.7 14.5 0.00 0.00 0.00 43 1011.6
20260505190621 14 296 8.0 14.5 0.00 0.00 0.00 41 1011.8
20260505190116 13 332 4.8 12.9 0.00 0.00 0.00 42 1011.6
20260505185613 14 323 3.2 4.8 0.00 0.00 0.00 42 1011.6
20260505185109 14 224 8.0 11.3 0.00 0.00 0.00 40 1011.7
20260505184606 13 224 3.2 16.1 0.00 0.00 0.00 42 1011.7
20260505184103 13 297 3.2 8.0 0.00 0.00 0.00 45 1011.8
20260505183559 13 7 9.7 14.5 0.00 0.00 0.00 45 1011.9
20260505183057 13 44 8.0 9.7 0.00 0.00 0.00 44 1011.8
20260505182553 13 337 1.6 8.0 0.00 0.00 0.00 48 1011.8
20260505182050 13 357 11.3 14.5 0.00 0.00 0.00 45 1011.8
20260505181547 13 321 3.2 8.0 0.00 0.00 0.00 47 1012.0
20260505181044 13 352 12.9 14.5 0.00 0.00 0.00 46 1011.9
20260505180539 13 316 4.8 4.8 0.00 0.00 0.00 47 1012.0
20260505180038 13 277 1.6 4.8 0.00 0.00 0.00 49 1012.1
20260505175537 13 251 4.8 8.0 0.00 0.00 0.00 48 1012.2
20260505175035 12 282 1.6 8.0 0.00 0.00 0.00 48 1012.2
20260505174532 12 318 6.4 11.3 0.00 0.00 0.00 49 1012.5
20260505174028 13 304 4.8 9.7 0.00 0.00 0.00 48 1012.1
20260505173525 13 280 6.4 11.3 0.00 0.00 0.00 48 1012.3
20260505173021 13 165 4.8 8.0 0.00 0.00 0.00 50 1012.1
20260505172519 12 266 6.4 14.5 0.00 0.00 0.00 49 1012.3
20260505172014 12 359 6.4 11.3 0.00 0.00 0.00 50 1012.4
20260505171505 12 306 8.0 12.9 0.00 0.00 0.00 48 1012.4
20260505171002 12 287 1.6 4.8 0.00 0.00 0.00 50 1012.4
20260505170459 12 238 11.3 12.9 0.00 0.00 0.00 46 1012.4
20260505165954 12 271 4.8 4.8 0.00 0.00 0.00 47 1012.4
20260505165450 12 342 8.0 11.3 0.00 0.00 0.00 48 1012.7
20260505164946 12 337 0.0 3.2 0.00 0.00 0.00 53 1012.7
20260505164442 12 345 8.0 9.7 0.00 0.00 0.00 51 1012.5
20260505163940 11 317 1.6 12.9 0.00 0.00 0.00 51 1012.7
20260505163439 11 356 6.4 12.9 0.00 0.00 0.00 50 1012.3
20260505162938 11 297 8.0 9.7 0.00 0.00 0.00 49 1012.4
20260505162433 11 51 6.4 9.7 0.00 0.00 0.00 50 1012.1
20260505161930 12 331 8.0 11.3 0.00 0.00 0.00 50 1012.3
20260505161427 12 243 3.2 3.2 0.00 0.00 0.00 49 1012.2
20260505160924 12 351 6.4 9.7 0.00 0.00 0.00 49 1012.3
20260505160422 11 323 3.2 4.8 0.00 0.00 0.00 50 1012.2
20260505153356 11 288 1.6 3.2 0.00 0.00 0.00 55 1012.1
20260505152852 11 305 1.6 3.2 0.00 0.00 0.00 55 1012.0
20260505152349 11 341 4.8 8.0 0.00 0.00 0.00 56 1012.0
20260505151844 11 0 1.6 3.2 0.00 0.00 0.00 57 1011.9
20260505151340 11 297 3.2 3.2 0.00 0.00 0.00 55 1012.1
20260505150831 11 288 0.0 1.6 0.00 0.00 0.00 56 1012.0
20260505150328 11 308 4.8 8.0 0.00 0.00 0.00 57 1012.0
20260505140241 10 256 1.6 3.2 0.00 0.00 0.00 63 1011.5
20260505130205 10 256 0.0 0.0 0.00 0.00 0.00 67 1010.7
20260505124655 10 142 3.2 3.2 0.00 0.00 0.00 73 1010.2
20260505124151 9 226 0.0 1.6 0.00 0.00 0.00 76 1010.4
20260505123647 8 226 0.0 0.0 0.00 0.00 0.00 81 1010.4
20260505123145 8 226 0.0 1.6 0.00 0.00 0.00 82 1010.5
20260505122641 8 226 0.0 1.6 0.00 0.00 0.00 85 1010.3
20260505122138 8 183 0.0 1.6 0.00 0.00 0.00 86 1010.8
20260505121634 7 128 0.0 0.0 0.00 0.00 0.00 88 1010.8
20260505121126 7 128 0.0 0.0 0.00 0.00 0.00 88 1010.7
20260505120621 7 257 0.0 0.0 0.00 0.00 0.00 88 1011.2
20260505120117 7 257 0.0 0.0 0.00 0.00 0.00 89 1011.1
20260505115612 7 257 0.0 0.0 0.00 0.00 0.00 90 1011.1
20260505115110 7 258 0.0 0.0 0.00 0.00 0.00 90 1011.0
20260505114607 7 258 0.0 0.0 0.00 0.00 0.00 90 1011.1
20260505114103 7 258 1.6 1.6 0.00 0.00 0.00 90 1011.0
20260505113559 7 258 0.0 0.0 0.00 0.00 0.00 90 1010.9
20260505113056 7 258 0.0 1.6 0.00 0.00 0.00 90 1011.0
20260505112552 7 258 0.0 0.0 0.00 0.00 0.00 89 1010.8
20260505112050 7 257 0.0 1.6 0.00 0.00 0.00 90 1011.2
20260505111544 7 257 1.6 3.2 0.00 0.00 0.00 89 1011.0
20260505111040 7 258 1.6 1.6 0.00 0.00 0.00 88 1011.2
20260505110537 7 258 1.6 1.6 0.00 0.00 0.00 88 1011.1
20260505102010 7 258 0.0 1.6 0.00 0.00 0.00 86 1010.3
20260505101508 7 258 0.0 0.0 0.00 0.00 0.00 85 1009.9
20260505101004 8 258 0.0 0.0 0.00 0.00 0.00 84 1009.8
20260505100501 8 258 0.0 0.0 0.00 0.00 0.00 84 1009.6
20260505095957 8 258 0.0 0.0 0.00 0.00 0.00 84 1009.5
20260505095454 8 258 0.0 1.6 0.00 0.00 0.00 85 1009.9
20260505094950 8 258 0.0 0.0 0.00 0.00 0.00 84 1009.9
20260505094447 8 258 0.0 0.0 0.00 0.00 0.00 83 1009.9
20260505093943 8 258 0.0 1.6 0.00 0.00 0.00 83 1010.0
20260505093440 8 258 0.0 0.0 0.00 0.00 0.00 82 1009.5
20260505092937 8 258 0.0 0.0 0.00 0.00 0.00 83 1009.4
20260505092435 8 256 0.0 3.2 0.00 0.00 0.00 82 1009.1
20260505091932 8 235 3.2 3.2 0.00 0.00 0.00 82 1009.1
20260505091430 8 290 1.6 1.6 0.00 0.00 0.00 82 1008.9
20260505090928 8 291 0.0 0.0 0.00 0.00 0.00 82 1008.9
20260505090426 8 291 0.0 1.6 0.00 0.00 0.00 82 1008.8
20260505085923 8 291 0.0 1.6 0.00 0.00 0.00 83 1008.3
20260505085420 8 286 1.6 1.6 0.00 0.00 0.00 83 1008.7
20260505084918 8 286 0.0 1.6 0.00 0.00 0.00 83 1008.9
20260505084416 8 286 0.0 0.0 0.00 0.00 0.00 81 1008.9
20260505083914 8 258 1.6 3.2 0.00 0.00 0.00 80 1009.1
20260505083411 8 259 1.6 3.2 0.00 0.00 0.00 81 1008.1
20260505082907 8 262 0.0 1.6 0.00 0.00 0.00 82 1008.0
20260505082403 8 258 1.6 3.2 0.00 0.00 0.00 80 1008.4
20260505081900 8 263 1.6 1.6 0.00 0.00 0.00 80 1008.9
20260505081357 8 262 1.6 1.6 0.00 0.00 0.00 80 1009.0
20260505080854 8 256 1.6 3.2 0.00 0.00 0.00 80 1009.1
20260505080350 8 292 1.6 3.2 0.00 0.00 0.00 77 1008.4
20260505075845 8 319 1.6 1.6 0.00 0.00 0.00 80 1007.8
20260505075342 8 350 0.0 1.6 0.00 0.00 0.00 79 1007.5
20260505074840 8 350 0.0 1.6 0.00 0.00 0.00 79 1007.6
20260505074337 8 350 0.0 3.2 0.00 0.00 0.00 77 1007.7
20260505073834 8 349 1.6 3.2 0.00 0.00 0.00 76 1007.6
20260505073332 8 8 6.4 8.0 0.00 0.00 0.00 74 1007.9
20260505072829 8 15 1.6 9.7 0.00 0.00 0.00 75 1008.0
20260505072325 8 347 4.8 8.0 0.00 0.00 0.00 73 1008.2
20260505071821 9 347 3.2 16.1 0.00 0.00 0.00 70 1008.0
20260505071317 9 354 4.8 9.7 0.00 0.00 0.00 68 1008.2
20260505070816 10 9 6.4 11.3 0.00 0.00 0.00 66 1008.3
20260505070312 10 25 9.7 16.1 0.00 0.00 0.00 63 1008.3
20260505065807 10 14 8.0 20.9 0.00 0.00 0.00 64 1008.3
20260505065304 10 340 16.1 24.1 0.00 0.00 0.00 63 1008.4
20260505064801 10 13 11.3 25.7 0.00 0.00 0.00 62 1008.1
20260505064258 10 29 17.7 25.7 0.00 0.00 0.00 61 1008.4
20260505063756 10 359 11.3 22.5 0.00 0.00 0.00 62 1008.5
20260505063252 10 10 9.7 12.9 0.00 0.00 0.00 61 1008.5
20260505062748 10 3 9.7 22.5 0.00 0.00 0.00 58 1008.0
20260505062241 11 6 14.5 16.1 0.00 0.00 0.00 58 1007.9
20260505061737 11 11 12.9 16.1 0.00 0.00 0.00 57 1008.4
20260505061235 11 264 9.7 14.5 0.00 0.00 0.00 54 1008.4
20260505060732 11 15 4.8 22.5 0.00 0.00 0.00 54 1008.5
20260505060229 11 343 14.5 20.9 0.00 0.00 0.00 53 1008.6
20260505055724 11 10 11.3 20.9 0.00 0.00 0.00 53 1008.6
20260505055221 11 2 12.9 16.1 0.00 0.00 0.00 52 1008.5
20260505054719 12 339 4.8 12.9 0.00 0.00 0.00 51 1008.5
20260505054216 12 344 8.0 20.9 0.00 0.00 0.00 49 1008.3
20260505053714 12 26 8.0 25.7 0.00 0.00 0.00 48 1008.0
20260505053210 12 354 9.7 12.9 0.00 0.00 0.00 49 1008.1
20260505052708 12 358 11.3 14.5 0.00 0.00 0.00 49 1007.8
20260505052204 12 338 12.9 20.9 0.00 0.00 0.00 49 1007.6
20260505051702 12 355 9.7 20.9 0.00 0.00 0.00 50 1007.7
20260505051159 12 330 11.3 25.7 0.00 0.00 0.00 50 1007.4
20260505050651 12 11 24.1 27.4 0.00 0.00 0.00 49 1006.9
20260505050149 12 21 22.5 25.7 0.00 0.00 0.00 49 1007.1
20260505041618 13 15 12.9 29.0 0.00 0.00 0.00 45 1007.1
20260505041115 13 15 16.1 22.5 0.00 0.00 0.00 45 1007.2
20260505040613 13 13 8.0 20.9 0.00 0.00 0.00 45 1007.1
20260505040110 13 8 9.7 12.9 0.00 0.00 0.00 44 1007.2
20260505035606 13 343 16.1 27.4 0.00 0.00 0.00 43 1007.2
20260505035103 13 15 14.5 17.7 0.00 0.00 0.00 43 1007.2
20260505034600 13 1 12.9 17.7 0.00 0.00 0.00 44 1007.1
20260505034056 13 356 12.9 27.4 0.00 0.00 0.00 43 1007.0
20260505033553 13 350 17.7 32.2 0.00 0.00 0.00 43 1006.7
20260505033051 13 355 8.0 20.9 0.00 0.00 0.00 44 1007.5
20260505032549 13 4 11.3 32.2 0.00 0.00 0.00 43 1007.5
20260505032045 13 7 9.7 32.2 0.00 0.00 0.00 43 1007.1
20260505031542 13 346 16.1 29.0 0.00 0.00 0.00 43 1007.1
20260505031038 14 6 29.0 41.8 0.00 0.00 0.00 43 1006.7
20260505030536 14 4 22.5 38.6 0.00 0.00 0.00 43 1006.2
20260505030032 14 6 22.5 35.4 0.00 0.00 0.00 43 1006.7
20260505025527 14 351 9.7 20.9 0.00 0.00 0.00 44 1006.7
20260505025027 14 358 14.5 24.1 0.00 0.00 0.00 42 1006.7
20260505024523 14 339 19.3 29.0 0.00 0.00 0.00 42 1006.8
20260505024020 15 317 17.7 22.5 0.00 0.00 0.00 42 1006.7
20260505023517 15 344 11.3 16.1 0.00 0.00 0.00 42 1006.6
20260505023015 15 353 6.4 12.9 0.00 0.00 0.00 42 1006.1
20260505022513 15 344 8.0 24.1 0.00 0.00 0.00 41 1005.9
20260505022010 15 341 8.0 29.0 0.00 0.00 0.00 41 1005.7
20260505021506 15 302 17.7 33.8 0.00 0.00 0.00 41 1005.8
20260505021002 15 10 14.5 29.0 0.00 0.00 0.00 41 1005.6
20260505020457 16 351 8.0 25.7 0.00 0.00 0.00 41 1005.7
20260505015954 16 305 11.3 33.8 0.00 0.00 0.00 41 1005.3
20260505015451 17 286 11.3 27.4 0.00 0.00 0.00 39 1005.2
20260505014948 17 15 12.9 35.4 0.00 0.00 0.00 37 1005.1
20260505014445 17 7 17.7 35.4 0.00 0.00 0.00 36 1004.8
20260505013942 17 359 17.7 38.6 0.00 0.00 0.00 36 1004.8
20260505013439 17 23 29.0 37.0 0.00 0.00 0.00 35 1004.4
20260505012937 18 1 20.9 38.6 0.00 0.00 0.00 35 1004.5
20260505012436 18 352 22.5 25.7 0.00 0.00 0.00 34 1004.2
20260505011932 18 336 16.1 22.5 0.00 0.00 0.00 35 1003.8
20260505011428 18 7 20.9 35.4 0.00 0.00 0.00 34 1003.9
20260505010925 18 6 12.9 35.4 0.00 0.00 0.00 34 1003.5
20260505010420 19 5 11.3 27.4 0.00 0.00 0.00 34 1003.6
20260505005916 19 9 20.9 29.0 0.00 0.00 0.00 33 1003.4
20260505005413 20 11 8.0 25.7 0.00 0.00 0.00 34 1003.4
20260505004910 20 335 19.3 38.6 0.00 0.00 0.00 33 1003.2
20260505004407 20 309 16.1 37.0 0.00 0.00 0.00 33 1003.2
20260505003904 20 334 17.7 40.2 0.00 0.00 0.00 33 1002.8
20260505003401 21 9 11.3 29.0 0.00 0.00 0.00 33 1002.7